Location: Trebic
(49.2170°N, 15.8830°E)
Time: 22:45:21
(UTC+02:00)

Transit 4A - Pass Details

Date: 29 July 2019
Orbit: 864 x 981 km, 66.8° (Epoch: 25 August)

Event Time Altitude Azimuth Distance (km) Brightness Sun altitude
Exits shadow 00:57:03 41° 196° (SSW) 1,387 8.3 -21.9°
Maximum altitude 00:59:25 74° 122° (ESE) 1,019 7.9 -21.9°
Drops below altitude 10° 01:05:50 10° 38° (NE) 2,738 11.1 -21.9°
Sets 01:08:24 0° 37° (NE) 3,684 11.9 -21.9°
